Lid_Strength_Index
4 7 8 8 12 13 14 13 10 11 10 8 6 8 9 8 10 13 2 1 -0 0 -0 -0 -1 -1 -1 -1 -1 -1 -2 -2 -2 -2 -2 -2 -2 -2 -2 -2 -2 -2 -2 -2 -2 -2 -2 -2 -2
7 7 8 11 14 16 15 12 11 10 8 6 6 8 9 11 6 4 3 0 -0 -0 -0 -0 -1 -1 -1 -2 -1 -2 -2 -2 -2 -2 -2 -2 -2 -2 -2 -2 -2 -2 -2 -2 -2 -2 -2 -2 -2
7 8 10 13 15 16 15 12 10 9 7 8 9 6 8 9 4 3 2 0 0 0 0 -0 -1 -2 -2 -2 -2 -2 -2 -2 -2 -2 -2 -2 -2 -2 -2 -2 -2 -2 -2 -2 -2 -2 -2 -2 -2
8 9 10 14 15 14 13 11 8 8 8 7 7 10 7 3 3 2 0 1 1 1 0 -1 -1 -1 -2 -2 -2 -2 -2 -2 -2 -2 -2 -2 -2 -2 -2 -2 -2 -2 -2 -2 -2 -2 -2 -2 -2
8 10 13 15 15 15 12 9 8 9 8 9 8 10 9 4 1 1 1 1 1 1 0 -0 -1 -1 -2 -2 -2 -2 -2 -2 -2 -2 -2 -2 -2 -2 -2 -2 -2 -2 -2 -2 -2 -2 -2 -2 -2
8 11 14 15 14 14 11 9 8 9 8 9 9 9 9 4 3 2 1 2 1 0 0 -0 0 -1 -1 -2 -2 -2 -2 -2 -2 -2 -2 -2 -2 -2 -2 -2 -2 -2 -2 -2 -2 -2 -2 -2 -2
9 11 13 13 13 13 11 10 10 8 9 9 6 10 8 5 3 2 2 1 1 0 0 0 0 0 0 -1 -1 -2 -2 -2 -2 -2 -2 -2 -2 -2 -2 -2 -2 -2 -2 -2 -2 -2 -2 -2 -2
8 11 12 12 14 14 12 11 10 8 8 6 6 9 9 4 3 3 1 0 0 1 0 1 1 1 1 1 -0 -1 -1 -1 -1 -1 -0 -0 -1 -1 -1 -1 -2 -2 -2 -2 -2 -2 -2 -2 -2
6 11 13 11 13 13 12 12 11 7 7 7 6 6 5 3 3 3 3 2 1 1 1 1 1 1 1 0 1 0 -0 0 -0 0 1 1 1 0 0 -0 -1 -2 -2 -2 -2 -2 -2 -1 -2
8 11 11 8 9 12 11 12 10 8 8 8 9 6 3 3 3 4 3 3 2 3 1 1 1 1 1 -0 1 1 1 2 2 1 1 1 1 1 0 1 -0 -1 -1 -2 -2 -2 -1 1 2
8 11 9 8 7 7 10 12 11 10 10 8 8 6 4 4 4 4 4 3 2 2 1 1 1 1 1 1 1 2 2 2 2 2 2 1 1 1 1 1 1 2 2 2 2 2 2 2 2
10 8 7 7 7 7 10 12 12 10 9 8 5 4 4 4 4 4 4 4 2 2 1 1 1 1 1 1 1 1 2 2 2 2 2 2 2 2 2 2 2 3 3 3 3 3 3 2 2
10 8 7 7 7 7 7 10 12 11 10 6 4 4 5 4 4 3 3 3 3 2 2 1 2 1 1 1 1 2 2 2 2 2 1 1 2 2 2 2 2 3 3 3 3 3 3 3 3
8 8 8 7 8 7 9 12 13 12 9 6 5 5 5 4 4 4 4 3 3 3 2 1 1 1 0 1 1 1 2 2 2 2 1 1 2 2 2 2 2 2 2 2 3 3 4 3 3
8 10 9 8 8 9 10 13 13 11 8 7 6 6 5 4 4 5 3 3 3 2 3 1 1 1 1 1 1 1 1 1 2 2 1 1 1 2 2 2 3 2 2 3 3 4 4 4 3
10 11 14 9 9 9 10 14 9 11 10 9 7 6 5 5 4 4 4 3 2 2 3 2 0 1 1 0 0 0 1 1 1 1 1 1 1 2 2 3 3 3 3 3 4 4 4 4 4
12 16 15 12 10 11 11 13 10 9 11 11 8 7 6 5 4 4 3 3 3 2 2 2 2 1 1 1 1 1 1 1 1 1 1 1 1 1 2 2 3 3 3 4 4 4 4 4 4
16 16 15 13 11 12 13 12 11 11 13 12 12 8 7 6 5 3 3 3 3 2 2 2 2 2 2 1 2 2 2 1 1 1 2 2 1 1 2 2 3 3 3 4 4 4 4 3 3
12 14 14 12 10 13 13 12 10 11 12 12 13 14 9 6 4 3 3 3 3 4 3 2 2 2 2 2 2 3 3 2 2 1 2 2 2 2 1 1 2 3 4 4 4 4 4 3 2
12 13 14 11 9 13 13 14 11 11 11 11 11 11 12 10 7 5 4 3 3 3 3 3 2 2 2 2 2 2 2 2 2 2 2 1 2 2 2 2 2 3 4 4 4 4 4 4 3
12 13 13 13 11 11 14 14 12 12 12 11 11 10 10 11 10 10 6 4 3 2 3 3 3 2 2 1 1 3 3 4 3 2 2 2 2 2 2 2 2 2 3 3 4 4 4 3 4
14 10 11 12 13 17 12 18 14 12 12 11 11 10 10 10 10 10 10 7 4 3 2 2 2 3 2 1 1 2 2 3 2 2 2 2 2 1 1 2 2 2 2 3 3 3 3 3 3
13 10 11 12 13 15 14 16 16 14 14 13 12 11 9 9 9 9 9 9 5 3 3 3 2 2 2 2 2 2 2 2 2 2 3 2 2 2 2 1 1 2 2 2 3 4 4 3 2
9 11 11 12 13 19 15 16 17 15 14 13 12 11 10 9 9 8 9 9 7 4 3 3 2 3 2 3 2 3 3 2 3 3 3 3 2 2 2 2 2 2 1 2 2 2 3 3 3
11 13 19 20 20 20 15 16 14 13 13 12 11 11 10 10 10 10 10 10 8 6 4 4 3 3 3 3 3 3 3 3 3 3 3 3 3 3 3 2 2 2 1 1 2 2 2 3 3
13 14 18 23 22 19 17 19 15 11 9 10 12 12 13 13 12 11 10 10 9 7 5 4 3 3 3 3 3 3 3 3 3 3 3 3 3 3 3 3 2 2 1 1 1 1 2 2 3
13 16 12 17 24 20 18 16 15 13 13 13 13 12 13 13 13 12 12 11 11 8 6 4 3 3 3 3 3 3 3 3 3 3 3 3 3 3 3 3 3 2 2 2 2 2 2 2 2
11 10 17 16 21 23 18 18 15 14 11 11 13 13 11 13 14 13 12 12 12 12 8 5 4 3 3 3 3 3 3 3 3 4 4 3 3 3 3 3 3 3 3 3 2 2 2 2 2
13 14 14 14 16 20 21 17 15 12 12 12 11 12 11 12 14 14 14 14 13 12 12 8 6 5 5 4 4 4 3 3 3 3 3 3 3 3 3 3 3 3 2 3 3 3 3 3 2
10 13 13 18 19 18 18 16 15 12 11 13 13 12 12 12 13 15 14 14 13 13 12 10 8 6 6 5 5 5 5 5 4 4 4 3 3 2 2 2 2 2 2 2 3 3 4 3 4